Volver al catálogo

BREEZE-M R/B

ActivoMEO
NORAD 37381·ROCKET BODY·🇷🇺 Russia

Lanzado Feb 11, 2008 desde Baikonur Cosmodrome

Loading…

Próximos Pases (próximas 24 horas)

TLE

ActualizadoSource: Space-Track

Época: Sep 14, 2026, 04:18 UTC

1 37381U 08006C   26257.17948388 -.00000252  00000-0  00000-0 0  9996
2 37381  12.1893  27.3876 0245904 305.1570 250.0617  0.95124303 63801

Sigue BREEZE-M R/B en tiempo real con AllMySat

Download on the App Store